Location: *
(46.4833°N, 7.6667°E)
Time: 09:29:25
(UTC+00:00)

ATLAS 3B R/B - Pass Details

Date: 27 February 2020
Orbit: 1029 x 1166 km, 63.8° (Epoch: 12 March)

Event Time Altitude Azimuth Distance (km) Brightness Sun altitude
Rises 21:16:37 0° 320° (NW) 3,809 6.4 -40.8°
Reaches altitude 10° 21:19:13 10° 318° (NW) 2,865 5.6 -41.1°
Enters shadow 21:22:45 34° 311° (NW) 1,681 4.0 -41.6°
